Terminal Aerodrome Forecast
Issued by NWS

Home | Current Version | Previous Version | Graphics & Text | Print | Product List | Glossary On
Versions: 1 2 3 4 5 6 7 8 9 10 11 12 13 14 15 16 17 18 19 20 21 22 23 24 25 26 27
091
FTUS43 KLOT 200540
TAFORD
TAF
KORD 200540Z 2006/2112 11005KT 5SM BR FEW250
     FM200900 13003KT 3SM BR SCT008
      TEMPO 2011/2013 1SM BR BKN008
     FM201400 17008KT 6SM BR SCT060
     FM201800 18012G19KT P6SM SCT060 SCT250
     FM210100 20006KT P6SM BKN200=

USA.gov is the U.S. government's official web portal to all federal, state and local government web resources and services.